CW9723 Weather Reports


time (UTC)temp
C
wind
direction
speed
KPH
gust
KPH
rain 1hr
cm
rain 24hr
cm
rain mn
cm
humidity
%
barometer
mb
20260507050734 6 279 3.2 8.0 0.00 2.36 0.00 98 1012.2
20260507050247 6 326 3.2 8.0 0.00 2.36 0.00 98 1012.3
20260507045734 6 337 3.2 8.0 0.00 2.36 0.00 97 1012.2
20260507045455 6 2 4.8 9.7 0.00 2.36 0.00 98 1012.2
20260507044721 6 308 4.8 9.7 0.00 2.36 0.00 99 1012.1
20260507044218 6 5 4.8 9.7 0.00 2.36 0.00 99 1012.0
20260507043708 6 330 4.8 9.7 0.00 2.36 0.00 99 1012.0
20260507043209 6 172 4.8 8.0 0.00 2.36 0.00 99 1011.9
20260507042709 6 13 3.2 8.0 0.00 2.36 0.00 99 1011.9
20260507042202 6 294 3.2 6.4 0.00 2.36 0.00 99 1012.0
20260507041703 6 287 3.2 9.7 0.00 2.36 0.00 99 1012.0
20260507041203 6 294 3.2 9.7 0.00 2.36 0.00 99 1011.8
20260507040703 6 349 3.2 9.7 0.00 2.36 0.00 99 1011.9
20260507040202 6 347 3.2 6.4 0.00 2.36 0.00 99 1011.8
20260507035702 6 340 3.2 6.4 0.00 2.39 2.39 99 1011.7
20260507035203 6 322 3.2 6.4 0.00 2.41 2.39 99 1011.6
20260507034703 6 289 3.2 4.8 0.00 2.44 2.39 99 1011.6
20260507034201 6 296 3.2 6.4 0.00 2.44 2.39 99 1011.6
20260507033702 6 319 4.8 8.0 0.00 2.44 2.39 99 1011.5
20260507033201 6 261 3.2 8.0 0.00 2.51 2.39 99 1011.4
20260507032703 6 284 1.6 3.2 0.00 2.51 2.39 99 1011.5
20260507032202 6 250 0.0 3.2 0.03 2.51 2.39 99 1011.5
20260507031702 6 37 1.6 6.4 0.03 2.54 2.39 99 1011.5
20260507031151 6 0 3.2 14.5 0.03 2.62 2.39 99 1011.5
20260507030646 6 329 4.8 14.5 0.03 2.72 2.39 99 1011.4
20260507030146 6 316 6.4 12.9 0.03 2.77 2.39 99 1011.5
20260507025918 7 18 6.4 14.5 0.03 2.82 2.39 99 1011.4
20260507025147 7 322 8.0 17.7 0.03 2.84 2.39 99 1011.4
20260507024919 7 14 8.0 19.3 0.03 2.87 2.39 99 1011.3
20260507024147 7 354 6.4 19.3 0.03 2.92 2.39 99 1011.3
20260507023646 7 344 6.4 14.5 0.03 2.95 2.39 99 1011.3
20260507023146 7 344 6.4 14.5 0.03 2.95 2.39 99 1011.2
20260507022647 7 290 6.4 14.5 0.05 3.00 2.36 99 1011.3
20260507022141 7 354 3.2 6.4 0.10 3.02 2.36 99 1011.4
20260507021641 7 327 1.6 3.2 0.10 3.05 2.36 99 1011.4
20260507021408 7 317 0.0 3.2 0.13 3.05 2.36 99 1011.3
20260507020641 7 0 1.6 3.2 0.13 3.07 2.36 99 1011.3
20260507020135 7 23 1.6 3.2 0.13 3.07 2.36 99 1011.3
20260507015621 7 0 0.0 3.2 0.13 3.15 2.36 99 1011.4
20260507015105 7 0 1.6 3.2 0.13 3.28 2.36 99 1011.2
20260507014835 7 7 1.6 3.2 0.13 3.40 2.36 99 1011.1
20260507014105 7 98 1.6 3.2 0.13 3.48 2.36 99 1011.1
20260507013618 7 171 1.6 3.2 0.13 3.58 2.36 99 1011.3
20260507013556 8 254 1.6 3.2 0.10 3.63 2.36 99 1011.3
20260507012828 8 169 1.6 3.2 0.08 3.63 2.31 99 1011.4
20260507012118 8 326 1.6 3.2 0.00 3.56 2.26 100 1011.4
20260507011605 8 168 1.6 3.2 0.00 3.61 2.26 99 1011.3
20260507011324 8 346 1.6 3.2 0.00 3.66 2.24 99 1011.2
20260507010603 8 139 0.0 3.2 0.00 3.73 2.24 99 1011.1
20260507010104 8 160 1.6 3.2 0.00 3.76 2.24 99 1011.0
20260507005551 8 94 1.6 3.2 0.00 3.84 2.24 99 1010.9
20260507005053 8 158 1.6 3.2 0.00 3.89 2.24 99 1010.8
20260507004554 8 185 1.6 3.2 0.00 3.89 2.24 99 1010.7
20260507004053 8 226 1.6 3.2 0.00 3.89 2.24 99 1010.8
20260507003544 8 0 0.0 1.6 0.00 3.91 2.24 98 1010.6
20260507003044 8 0 0.0 1.6 0.00 3.94 2.24 98 1010.5
20260507002544 8 0 0.0 1.6 0.00 3.96 2.24 97 1010.5
20260507002044 8 236 0.0 3.2 0.00 3.96 2.24 96 1010.5
20260507001544 8 170 1.6 3.2 0.00 3.99 2.24 96 1010.4
20260507001043 8 236 0.0 3.2 0.00 3.99 2.24 96 1010.5
20260507000543 8 0 0.0 1.6 0.00 4.09 2.24 95 1010.4
20260507000057 8 0 0.0 1.6 0.00 4.14 2.24 95 1010.4
20260506235814 8 0 0.0 1.6 0.00 4.24 2.24 95 1010.3
20260506235037 8 0 0.0 1.6 0.00 4.29 2.24 96 1010.3
20260506234805 8 0 0.0 1.6 0.00 4.32 2.24 96 1010.3
20260506234037 8 0 0.0 1.6 0.00 4.32 2.24 95 1010.2
20260506233538 8 0 0.0 1.6 0.00 4.32 2.24 95 1010.2
20260506233304 8 0 0.0 3.2 0.00 4.32 2.24 95 1010.2
20260506232551 8 0 0.0 3.2 0.00 4.32 2.24 95 1010.2
20260506232038 8 0 0.0 3.2 0.00 4.32 2.24 94 1010.3
20260506231538 8 0 0.0 3.2 0.00 4.32 2.24 94 1010.2
20260506231024 8 338 1.6 3.2 0.00 4.32 2.24 95 1010.3
20260506230507 8 335 1.6 3.2 0.00 4.32 2.24 94 1010.2
20260506230009 8 21 1.6 3.2 0.00 4.32 2.24 93 1010.0
20260506225507 8 343 1.6 3.2 0.00 4.32 2.24 93 1009.9
20260506225008 8 356 0.0 3.2 0.00 4.32 2.24 93 1009.7
20260506224508 8 327 0.0 3.2 0.00 4.32 2.24 93 1009.8
20260506224007 8 0 1.6 3.2 0.00 4.32 2.24 92 1009.6
20260506223507 8 80 1.6 3.2 0.00 4.32 2.24 93 1009.5
20260506223008 8 34 3.2 3.2 0.00 4.32 2.24 93 1009.6
20260506222731 8 40 1.6 3.2 0.00 4.32 2.24 92 1009.7
20260506222228 8 96 0.0 3.2 0.00 4.32 2.24 92 1009.9
20260506221508 8 0 1.6 3.2 0.00 4.32 2.24 92 1009.9
20260506220955 8 286 1.6 3.2 0.00 4.32 2.24 92 1009.9
20260506220456 8 17 1.6 3.2 0.00 4.32 2.24 93 1010.0
20260506215949 8 319 1.6 3.2 0.00 4.32 2.24 93 1010.0
20260506215447 8 347 3.2 4.8 0.00 4.32 2.24 93 1010.0
20260506214946 8 317 3.2 4.8 0.00 4.32 2.24 94 1010.0
20260506214447 8 1 1.6 4.8 0.00 4.32 2.24 94 1009.9
20260506213946 8 333 1.6 3.2 0.00 4.32 2.24 94 1009.9
20260506213446 8 142 3.2 4.8 0.00 4.32 2.24 93 1009.7
20260506212946 8 15 3.2 4.8 0.00 4.32 2.24 93 1009.8
20260506212447 8 26 1.6 4.8 0.00 4.32 2.24 92 1009.8
20260506211947 8 338 3.2 6.4 0.00 4.32 2.24 93 1009.7
20260506211713 7 332 4.8 8.0 0.00 4.32 2.24 94 1009.6
20260506210940 7 17 3.2 8.0 0.00 4.32 2.24 93 1009.7
20260506210702 8 352 3.2 8.0 0.00 4.32 2.24 93 1009.7
20260506210211 7 0 4.8 12.9 0.00 4.32 2.24 95 1009.8
20260506205428 7 18 4.8 12.9 0.00 4.32 2.24 94 1009.7
20260506204925 7 353 3.2 8.0 0.00 4.32 2.24 96 1009.8
20260506204423 7 26 4.8 9.7 0.00 4.32 2.24 95 1009.7
20260506203923 7 341 4.8 9.7 0.00 4.32 2.24 96 1009.8
20260506203422 7 358 4.8 11.3 0.00 4.32 2.24 95 1009.8
20260506202922 7 327 4.8 11.3 0.00 4.32 2.24 94 1009.7
20260506202423 7 337 6.4 12.9 0.00 4.32 2.24 95 1009.7
20260506201924 7 13 6.4 12.9 0.00 4.32 2.24 95 1009.7
20260506201423 7 322 3.2 9.7 0.00 4.32 2.24 97 1009.5
20260506200922 7 318 4.8 11.3 0.00 4.32 2.24 97 1009.4
20260506200423 7 37 6.4 12.9 0.00 4.32 2.24 96 1009.3
20260506195918 7 67 6.4 12.9 0.00 4.32 2.24 97 1009.3
20260506195417 7 40 6.4 14.5 0.00 4.34 2.24 98 1009.3
20260506194919 7 358 8.0 17.7 0.00 4.34 2.24 99 1009.2
20260506194417 7 29 8.0 17.7 0.00 4.34 2.24 100 1009.2
20260506193917 7 10 9.7 17.7 0.00 4.34 2.24 100 1009.3
20260506193417 7 0 9.7 17.7 0.00 4.34 2.24 100 1009.3
20260506192917 6 35 9.7 14.5 0.00 4.34 2.24 100 1009.3
20260506192417 6 353 8.0 14.5 0.00 4.34 2.24 100 1009.4
20260506192141 7 1 8.0 17.7 0.00 4.34 2.24 100 1009.4
20260506191417 6 343 9.7 17.7 0.00 4.34 2.24 100 1009.4
20260506190917 6 29 9.7 16.1 0.00 4.34 2.24 100 1009.3
20260506190417 7 5 9.7 17.7 0.00 4.34 2.24 100 1009.4
20260506190135 7 14 8.0 17.7 0.00 4.34 2.24 100 1009.2
20260506185413 7 23 8.0 17.7 0.00 4.34 2.24 100 1009.1
20260506184912 7 19 8.0 16.1 0.00 4.34 2.24 100 1008.9
20260506184410 7 5 8.0 16.1 0.00 4.34 2.24 100 1008.9
20260506184348 7 38 6.4 17.7 0.00 4.34 2.24 100 1009.0
20260506183411 7 4 6.4 17.7 0.00 4.34 2.24 100 1009.0
20260506183137 7 47 6.4 16.1 0.00 4.34 2.24 100 1009.1
20260506182411 7 347 8.0 16.1 0.00 4.34 2.24 100 1009.0
20260506181913 7 53 6.4 14.5 0.00 4.34 2.24 100 1008.9
20260506181409 7 352 6.4 16.1 0.00 4.34 2.24 100 1008.9
20260506180908 7 338 8.0 19.3 0.00 4.34 2.24 100 1009.0
20260506180407 7 21 9.7 19.3 0.00 4.34 2.24 100 1008.9
20260506175908 7 19 9.7 17.7 0.00 4.34 2.24 100 1008.7
20260506175408 7 19 8.0 17.7 0.00 4.34 2.24 100 1008.6
20260506174908 7 18 8.0 17.7 0.00 4.34 2.24 100 1008.5
20260506174408 7 10 9.7 19.3 0.00 4.37 2.24 100 1008.3
20260506173908 7 12 9.7 19.3 0.00 4.37 2.24 100 1008.3
20260506173409 7 38 9.7 20.9 0.00 4.37 2.24 100 1008.2
20260506172909 7 351 8.0 20.9 0.00 4.42 2.24 100 1008.2
20260506172408 7 329 8.0 17.7 0.00 4.60 2.24 100 1008.2
20260506171907 7 289 8.0 16.1 0.00 4.62 2.24 100 1008.2
20260506171402 7 1 6.4 14.5 0.00 4.62 2.24 100 1008.1
20260506171133 7 5 8.0 14.5 0.00 4.62 2.24 100 1008.1
20260506170402 7 25 8.0 14.5 0.00 4.62 2.24 100 1008.1
20260506165901 7 11 6.4 14.5 0.00 4.62 2.24 100 1008.1
20260506165401 7 26 8.0 16.1 0.00 4.62 2.24 100 1008.0
20260506164902 7 69 9.7 16.1 0.00 4.62 2.24 100 1007.9
20260506164632 7 342 8.0 14.5 0.00 4.62 2.24 100 1007.9
20260506163901 7 357 8.0 14.5 0.00 4.62 2.24 100 1007.9
20260506163401 7 89 8.0 14.5 0.00 4.62 2.24 100 1007.8
20260506162902 7 357 8.0 14.5 0.00 4.62 2.24 100 1007.8
20260506162402 7 346 6.4 14.5 0.00 4.62 2.24 100 1007.9
20260506161902 7 15 6.4 12.9 0.00 4.62 2.24 100 1008.0
20260506161613 7 350 6.4 11.3 0.00 4.62 2.24 100 1007.9
20260506160909 7 14 6.4 11.3 0.00 4.62 2.24 100 1008.0
20260506160357 7 40 6.4 12.9 0.00 4.62 2.24 100 1008.0
20260506155857 7 6 6.4 16.1 0.00 4.62 2.24 100 1008.1
20260506155357 7 6 6.4 16.1 0.00 4.62 2.24 100 1008.1
20260506154858 7 58 6.4 11.3 0.00 4.62 2.24 100 1008.1
20260506154354 7 349 6.4 14.5 0.00 4.62 2.24 100 1008.3
20260506153854 7 0 8.0 16.1 0.00 4.62 2.24 99 1008.2
20260506153354 7 27 8.0 16.1 0.00 4.62 2.24 99 1008.2
20260506152853 7 14 6.4 12.9 0.00 4.62 2.24 99 1008.2
20260506152353 7 32 6.4 11.3 0.00 4.62 2.24 99 1008.3
20260506151854 7 26 6.4 12.9 0.00 4.62 2.24 99 1008.2
20260506151611 7 14 6.4 14.5 0.00 4.62 2.24 99 1008.2
20260506150850 7 10 8.0 14.5 0.00 4.62 2.24 99 1008.0
20260506150348 7 12 6.4 14.5 0.00 4.62 2.24 99 1008.0
20260506145847 7 42 6.4 11.3 0.00 4.62 2.24 99 1008.0
20260506145347 7 1 6.4 11.3 0.00 4.62 2.24 99 1007.9
20260506144845 7 19 6.4 11.3 0.00 4.62 2.24 99 1007.7
20260506144345 6 27 6.4 11.3 0.00 4.62 2.24 99 1007.7
20260506143845 7 2 4.8 9.7 0.00 4.62 2.24 99 1007.8
20260506143333 6 68 4.8 9.7 0.00 4.62 2.24 99 1007.8
20260506142833 6 353 6.4 11.3 0.00 4.62 2.24 100 1007.3
20260506142334 6 49 6.4 11.3 0.00 4.62 2.24 99 1007.6
20260506141834 6 34 4.8 11.3 0.00 4.62 2.24 100 1007.6
20260506141333 6 34 4.8 17.7 0.03 4.62 2.24 100 1007.6
20260506141057 6 20 6.4 17.7 0.05 4.62 2.24 100 1007.6
20260506140334 6 54 4.8 9.7 0.08 4.62 2.24 100 1007.6
20260506135831 6 65 3.2 9.7 0.10 4.62 2.24 100 1007.7
20260506135322 6 49 3.2 9.7 0.13 4.62 2.24 99 1007.7
20260506134822 6 0 4.8 12.9 0.13 4.62 2.24 99 1007.6
20260506134547 6 4 6.4 12.9 0.15 4.62 2.24 99 1007.7
20260506133816 6 70 6.4 11.3 0.20 4.62 2.24 99 1007.7
20260506133316 6 26 6.4 12.9 0.25 4.62 2.24 99 1007.7
20260506132816 6 94 6.4 12.9 0.30 4.62 2.24 99 1007.7
20260506132545 6 12 8.0 12.9 0.33 4.62 2.24 99 1007.8
20260506131830 6 52 8.0 14.5 0.38 4.62 2.24 99 1007.8
20260506131316 6 41 6.4 14.5 0.38 4.60 2.21 99 1007.8
20260506130816 6 21 6.4 11.3 0.41 4.60 2.21 99 1007.9
20260506130317 6 72 6.4 11.3 0.41 4.55 2.16 99 1007.9
20260506125815 6 16 6.4 11.3 0.43 4.52 2.13 99 1008.0
20260506125315 6 60 4.8 11.3 0.43 4.52 2.13 99 1007.9
20260506125040 6 34 6.4 12.9 0.43 4.50 2.11 99 1007.9
20260506124315 6 17 8.0 14.5 0.41 4.47 2.06 99 1008.0
20260506124042 6 61 6.4 14.5 0.38 4.42 2.03 99 1008.0
20260506123311 6 13 6.4 12.9 0.30 4.37 1.98 99 1008.0
20260506122811 6 28 8.0 12.9 0.25 4.32 1.93 99 1007.9
20260506122311 6 2 8.0 12.9 0.23 4.27 1.88 99 1008.0
20260506121811 6 27 8.0 14.5 0.20 4.24 1.85 99 1007.8
20260506121311 6 58 6.4 14.5 0.18 4.22 1.83 99 1007.7
20260506120811 6 53 4.8 14.5 0.15 4.19 1.78 99 1007.6
20260506120312 6 49 4.8 14.5 0.13 4.14 1.75 99 1007.7
20260506120028 6 59 6.4 16.1 0.10 4.09 1.70 99 1007.5
20260506115307 6 92 6.4 16.1 0.13 4.09 1.70 99 1007.5
20260506115024 6 56 8.0 14.5 0.18 4.06 1.68 99 1007.2
20260506114301 6 43 8.0 14.5 0.20 4.04 1.65 99 1007.5
20260506113800 6 77 9.7 14.5 0.28 4.04 1.65 99 1007.7
20260506113300 6 47 9.7 14.5 0.36 4.04 1.65 99 1007.7
20260506112800 6 38 9.7 14.5 0.41 4.04 1.65 99 1007.7
20260506112301 6 52 8.0 14.5 0.43 4.04 1.65 99 1007.9
20260506112015 6 51 8.0 14.5 0.48 4.04 1.65 99 1007.7
20260506111257 6 21 8.0 14.5 0.51 4.04 1.65 99 1007.8
20260506110757 6 69 6.4 12.9 0.56 4.04 1.65 99 1007.9
20260506110257 6 20 6.4 14.5 0.61 4.01 1.63 99 1007.9
20260506110024 6 116 8.0 14.5 0.61 3.99 1.60 99 1007.9
20260506105257 6 34 8.0 14.5 0.56 3.96 1.55 99 1008.0
20260506104758 6 40 8.0 16.1 0.51 3.89 1.50 99 1008.0
20260506104257 6 65 8.0 16.1 0.48 3.84 1.45 99 1007.8
20260506103755 6 34 8.0 16.1 0.41 3.76 1.37 99 1007.9
20260506103255 6 28 8.0 17.7 0.36 3.71 1.32 99 1007.9
20260506103018 6 356 8.0 17.7 0.33 3.63 1.27 99 1008.0
20260506102256 6 348 6.4 16.1 0.33 3.61 1.22 99 1007.8
20260506101756 6 41 4.8 16.1 0.33 3.56 1.17 99 1007.7
20260506101255 6 30 6.4 16.1 0.30 3.51 1.12 99 1007.7
20260506101027 6 37 8.0 16.1 0.25 3.45 1.07 99 1007.5
20260506100256 6 49 6.4 14.5 0.23 3.40 1.02 99 1007.2
20260506095755 7 40 6.4 12.9 0.23 3.38 0.99 99 1007.2
20260506095518 7 51 4.8 11.3 0.23 3.38 0.99 99 1007.3
20260506095023 7 41 4.8 11.3 0.25 3.38 0.99 99 1007.3
20260506094256 7 47 4.8 12.9 0.23 3.38 0.99 99 1007.3
20260506093755 7 92 4.8 12.9 0.25 3.35 0.97 99 1007.2
20260506093256 7 3 6.4 16.1 0.28 3.33 0.94 99 1007.1
20260506092756 7 91 6.4 16.1 0.25 3.30 0.91 99 1007.0
20260506092250 7 70 4.8 14.5 0.23 3.28 0.89 99 1007.1
20260506091751 7 97 4.8 11.3 0.23 3.25 0.84 99 1007.1
20260506091251 7 48 4.8 9.7 0.23 3.20 0.81 99 1007.5
20260506090751 7 91 4.8 12.9 0.25 3.20 0.81 99 1007.6
20260506090251 7 132 4.8 12.9 0.25 3.17 0.79 99 1007.6
20260506085751 7 130 3.2 9.7 0.25 3.15 0.76 99 1008.0
20260506085252 7 88 6.4 14.5 0.25 3.15 0.76 99 1008.1
20260506084743 7 83 8.0 14.5 0.28 3.12 0.74 99 1008.1
20260506084243 7 36 9.7 17.7 0.36 3.12 0.74 99 1008.3
20260506083744 7 46 8.0 17.7 0.36 3.10 0.71 99 1008.4
20260506083243 7 5 9.7 14.5 0.36 3.07 0.69 99 1008.4
20260506082743 7 39 9.7 14.5 0.38 3.05 0.66 99 1008.4
20260506082244 8 51 9.7 17.7 0.41 3.02 0.64 99 1008.3
20260506081739 8 45 9.7 17.7 0.41 3.02 0.61 99 1008.2
20260506081235 8 34 9.7 17.7 0.38 2.97 0.58 99 1008.1
20260506080735 8 18 8.0 16.1 0.33 2.95 0.56 99 1008.1
20260506080457 8 42 8.0 16.1 0.33 2.92 0.53 99 1007.8
20260506073223 8 38 8.0 12.9 0.15 2.77 0.33 99 1007.9
20260506072723 8 53 8.0 14.5 0.08 2.74 0.28 99 1007.9
20260506072234 8 32 8.0 14.5 0.03 2.69 0.20 99 1007.7
20260506072223 8 19 8.0 14.5 0.05 2.69 0.23 99 1007.9
20260506071222 8 33 6.4 14.5 0.05 2.69 0.20 99 1007.5
20260506070722 8 16 4.8 9.7 0.05 2.69 0.20 99 1007.5
20260506070208 8 36 4.8 8.0 0.03 2.67 0.20 99 1007.6
20260506062203 8 154 3.2 6.4 0.18 2.67 0.18 99 1008.1
20260506061704 8 82 3.2 6.4 0.18 2.64 0.18 99 1008.1
20260506061204 8 356 3.2 4.8 0.15 2.64 0.18 99 1008.5
20260506060705 8 336 3.2 4.8 0.15 2.64 0.18 99 1008.5
20260506060204 8 104 1.6 4.8 0.15 2.64 0.18 99 1008.2